{"data":{"norad_id":68846,"intl_designator":"2026-094H","name":"STARLINK-37547","alt_names":[],"object_type":"PAYLOAD","status":"ACTIVE","operator":null,"country":"US","launch_date":"2026-04-26","launch_site_code":"AFWTR","launch_vehicle":null,"mission":null,"orbit_class":"UNKNOWN","rcs_meters":null,"size_class":null,"mass_kg":null,"dimensions":null,"purposes":["comms"],"wikipedia_slug":null,"has_3d_model":false,"image_url":null,"decayed_at":null,"tle_current":{"epoch":"2026-09-20T00:46:53.147712Z","epoch_age_seconds":55913,"freshness":"FRESH","line1":"1 68846U 26094H   26263.03255958  .00013030  00000+0  40509-3 0  9996","line2":"2 68846  97.2853 276.1261 0001064  81.8399 278.2964 15.33456525 22586","mean_motion":15.33456525,"eccentricity":0.0001064,"inclination_deg":97.2853,"raan_deg":276.1261,"arg_perigee_deg":81.8399,"mean_anomaly_deg":278.2964,"bstar":0.00040509,"rev_number":2258,"period_min":93.905498885924,"perigee_km":464.78072047932,"apogee_km":466.23704832352,"semimajor_km":6843.6458844014,"source":"CELESTRAK","updated_at":"2026-09-20T09:00:44.015573Z"}}}